sat.trackr.live / text

‹ back to catalog

STARLINK-32819

NORAD 62995 · 2025-031Q

PAYLOAD ACTIVE UNKNOWN

§ Identity

Operator
Country
US
Launch date
2025-02-11
Launch site
AFETR
Launch vehicle
Mass (kg)
RCS (m²)

Purposes: comms

External: N2YO · Heavens-Above · Gunter

§ Orbital elements

Epoch: 2026-05-25T04:15:06.199776Z

Period
94.27 min
Inclination
43.0030°
Eccentricity
0.0001546
Mean motion
15.27588933 rev/d
Perigee alt
482.0 km
Apogee alt
484.1 km
Semi-major
6,861.2 km
B*
4.1810e-4
RAAN
71.3207°
Arg perigee
275.0170°
Mean anomaly
85.0505°
Rev number
7,279

§ Raw data

STARLINK-328191 62995U 25031Q   26145.17715509  .00011264  00000+0  41810-3 0  99952 62995  43.0030  71.3207 0001546 275.0170  85.0505 15.27588933 72790

JSON: /api/v1/satellites/62995 · /tle

For live sub-satellite position, see the globe view (requires WebGL).

§ Visibility from observer

Set your observer location to see the next 7 days of passes ≥ 10°. The values pass through the URL so the page stays shareable.

No JS? Fill the form by hand. The geolocation button needs JavaScript.